Home > Weather > Newport News > Past weeks

Flag for USA Past Weather in Newport News, Virginia, USA — Yesterday and Last 2 Weeks

Now
81 °F

Clear.


Feels Like: 87 °F
Forecast: 80 / 94 °F
Wind: 10 mph from Southwest

Location: Newport News / Williamsburg International Airport

Current Time: Jul 26, 2016 at 6:28:07 AM

Latest Report: Jul 26, 2016 at 5:54 AM


Visibility: 10 mi

Pressure: 29.94 "Hg

Humidity: 85%

Dew Point: 76 °F

Location of Newport NewsLocation

Past Weather in Newport News — Graph

°F

Newport News Temperature Yesterday

Maximum temperature yesterday: 95 °F (at 3:54 PM)
Minimum temperature yesterday: 79 °F (at 5:54 AM)
Average temperature yesterday: 87 °F

High & Low Weather Summary for the Past Weeks

 TemperatureHumidityPressure
High95 °F (Jul 14, 3:54 PM)100% (Jul 18, 4:58 AM)30.19 "Hg (Jul 18, 4:58 AM)
Low67 °F (Jul 21, 4:54 AM)46% (Jul 14, 3:54 PM)29.89 "Hg (Jul 25, 5:54 PM)
Average82 °F76%30.05 "Hg
* Reported Jul 11 4:54 AM — Jul 26 4:54 AM, Newport News, Weather by CustomWeather, © 2016

Note: Actual official high and low records may vary slightly from our data, if they occured in-between our weather recording intervals... More about our weather records

Advertising

Newport News Weather History for the Previous 24 Hours

Scroll right to see more
 ConditionsComfort  
Time TempWeatherWind HumidityBarometerVisibility
4:54 AM
Tue, Jul 26
81 °FClear.9 mph85%29.93 "Hg10 mi
3:54 AM82 °FClear.9 mph82%29.93 "Hg10 mi
2:54 AM82 °FClear.13 mph82%29.93 "Hg10 mi
1:54 AM83 °FClear.13 mph79%29.92 "Hg10 mi
12:54 AM84 °FClear.18 mph80%29.93 "Hg10 mi
11:54 PM
Mon, Jul 25
85 °FClear.14 mph77%29.94 "Hg10 mi
10:54 PM86 °FClear.10 mph72%29.93 "Hg10 mi
9:54 PM87 °FClear.13 mph69%29.93 "Hg10 mi
8:54 PM87 °FPassing clouds.9 mph69%29.92 "Hg10 mi
7:54 PM90 °FSunny.14 mph63%29.91 "Hg10 mi
6:54 PM91 °FSunny.10 mph61%29.91 "Hg10 mi
5:54 PM94 °FSunny.16 mph54%29.89 "Hg10 mi
4:54 PM94 °FSunny.10 mph54%29.91 "Hg10 mi
3:54 PM95 °FSunny.15 mph51%29.92 "Hg10 mi
2:54 PM94 °FSunny.15 mph54%29.95 "Hg10 mi
1:54 PM93 °FSunny.13 mph60%29.96 "Hg10 mi
12:54 PM92 °FSunny.12 mph62%29.99 "Hg10 mi
11:54 AM91 °FSunny.12 mph66%30.00 "Hg10 mi
10:54 AM89 °FSunny.12 mph68%30.01 "Hg10 mi
9:54 AM87 °FSunny.10 mph72%30.00 "Hg10 mi
8:54 AM84 °FSunny.12 mph80%30.01 "Hg10 mi
8:01 AM82 °FPassing clouds.9 mph85%30.02 "Hg10 mi
7:54 AM82 °FSunny.13 mph85%30.02 "Hg10 mi
6:54 AM80 °FClear.7 mph90%30.01 "Hg9 mi
Weather by CustomWeather, © 2016

See weather overviewHow to use our weather pages